DAL438 KSLC-KJAC

Flight info

Callsign DAL438
Flight time 0h 38m
Altitude 31000
Route RUGGD3 HOLTR ELLKK MOSSS
Aircraft A21N/M-SDE2E3FGHIJ1RWXY/LB1

Departure

Time 2026-05-08 04:37
Airport Salt Lake City International Airport (KSLC)

Arrival

Time 2026-05-08 05:15
Airport Jackson Hole Airport (KJAC)
Time Latitude Longitude Altitude Speed Heading
2026-05-08 04:07 40.78924 -111.99135 4234 ft 0 kts 175°
2026-05-08 04:22 40.78944 -111.99137 4234 ft 4 kts 176°
2026-05-08 04:22 40.78971 -111.99138 4234 ft 4 kts 182°
2026-05-08 04:22 40.78998 -111.99133 4234 ft 4 kts 201°
2026-05-08 04:22 40.79011 -111.99124 4234 ft 1 kts 220°
2026-05-08 04:27 40.79009 -111.99128 4234 ft 1 kts 230°
2026-05-08 04:27 40.79002 -111.99166 4234 ft 7 kts 261°
2026-05-08 04:27 40.78995 -111.99234 4234 ft 8 kts 266°
2026-05-08 04:28 40.79030 -111.99290 4234 ft 11 kts 352°
2026-05-08 04:28 40.79099 -111.99321 4233 ft 11 kts 306°
2026-05-08 04:28 40.79099 -111.99412 4234 ft 11 kts 263°
2026-05-08 04:28 40.79064 -111.99505 4235 ft 13 kts 199°
2026-05-08 04:29 40.78955 -111.99500 4232 ft 18 kts 175°
2026-05-08 04:29 40.78834 -111.99487 4235 ft 17 kts 175°
2026-05-08 04:29 40.78716 -111.99472 4234 ft 17 kts 174°
2026-05-08 04:29 40.78598 -111.99460 4234 ft 17 kts 175°
2026-05-08 04:30 40.78482 -111.99446 4234 ft 17 kts 175°
2026-05-08 04:30 40.78367 -111.99432 4234 ft 17 kts 174°
2026-05-08 04:30 40.78251 -111.99418 4234 ft 17 kts 174°
2026-05-08 04:30 40.78138 -111.99408 4234 ft 16 kts 182°
2026-05-08 04:31 40.78027 -111.99431 4257 ft 16 kts 192°
2026-05-08 04:31 40.77916 -111.99434 4257 ft 16 kts 175°
2026-05-08 04:31 40.77807 -111.99421 4258 ft 15 kts 175°
2026-05-08 04:31 40.77702 -111.99409 4258 ft 15 kts 175°
2026-05-08 04:32 40.77619 -111.99399 4258 ft 5 kts 175°
2026-05-08 04:32 40.77606 -111.99397 4258 ft 0 kts 174°
2026-05-08 04:33 40.77600 -111.99397 4259 ft 4 kts 174°
2026-05-08 04:34 40.77559 -111.99395 4258 ft 6 kts 187°
2026-05-08 04:34 40.77528 -111.99424 4259 ft 5 kts 243°
2026-05-08 04:34 40.77520 -111.99466 4259 ft 5 kts 265°
2026-05-08 04:34 40.77517 -111.99517 4260 ft 6 kts 265°
2026-05-08 04:35 40.77526 -111.99546 4260 ft 3 kts 325°
2026-05-08 04:35 40.77544 -111.99552 4260 ft 0 kts 355°
2026-05-08 04:36 40.77546 -111.99552 4260 ft 1 kts 355°
2026-05-08 04:36 40.77701 -111.99570 4259 ft 53 kts 354°
2026-05-08 04:36 40.78273 -111.99638 4233 ft 112 kts 355°
2026-05-08 04:36 40.79265 -111.99755 4234 ft 172 kts 355°
2026-05-08 04:37 40.80546 -111.99917 4579 ft 186 kts 355°
2026-05-08 04:37 40.81821 -112.00080 5261 ft 183 kts 355°
2026-05-08 04:37 40.83085 -112.00227 5955 ft 184 kts 354°
2026-05-08 04:37 40.84441 -112.00399 6360 ft 207 kts 354°
2026-05-08 04:38 40.85939 -112.00616 6721 ft 227 kts 353°
2026-05-08 04:38 40.87616 -112.00854 6904 ft 255 kts 353°
2026-05-08 04:38 40.89430 -112.01091 7450 ft 268 kts 353°
2026-05-08 04:38 40.91317 -112.01321 8154 ft 277 kts 353°
2026-05-08 04:39 40.93251 -112.01557 8957 ft 280 kts 352°
2026-05-08 04:39 40.95193 -112.01794 9918 ft 281 kts 352°
2026-05-08 04:39 40.97168 -112.02037 10611 ft 294 kts 351°
2026-05-08 04:39 40.99284 -112.02300 10981 ft 317 kts 352°
2026-05-08 04:40 41.01571 -112.02317 11382 ft 340 kts
2026-05-08 04:40 41.03894 -112.01458 12022 ft 356 kts 21°
2026-05-08 04:40 41.06092 -111.99838 12767 ft 366 kts 27°
2026-05-08 04:40 41.08253 -111.97998 13614 ft 372 kts 28°
2026-05-08 04:41 41.10431 -111.96085 14373 ft 377 kts 29°
2026-05-08 04:41 41.12586 -111.94179 15201 ft 378 kts 29°
2026-05-08 04:41 41.14782 -111.92235 16065 ft 379 kts 28°
2026-05-08 04:41 41.16975 -111.90293 16899 ft 380 kts 28°
2026-05-08 04:42 41.19175 -111.88344 17721 ft 380 kts 28°
2026-05-08 04:42 41.21388 -111.86385 18399 ft 385 kts 28°
2026-05-08 04:42 41.23625 -111.84403 19005 ft 388 kts 28°
2026-05-08 04:42 41.25874 -111.82400 19604 ft 390 kts 29°
2026-05-08 04:43 41.28140 -111.80384 20251 ft 392 kts 29°
2026-05-08 04:43 41.30417 -111.78361 20903 ft 394 kts 29°
2026-05-08 04:43 41.32705 -111.76326 21511 ft 397 kts 29°
2026-05-08 04:43 41.35015 -111.74272 22082 ft 400 kts 29°
2026-05-08 04:44 41.37351 -111.72237 22639 ft 402 kts 27°
2026-05-08 04:44 41.39837 -111.70563 23182 ft 399 kts 18°
2026-05-08 04:44 41.42459 -111.69363 23695 ft 400 kts 14°
2026-05-08 04:44 41.45135 -111.68300 24159 ft 402 kts 13°
2026-05-08 04:45 41.47827 -111.67256 24667 ft 403 kts 13°
2026-05-08 04:45 41.50525 -111.66208 25180 ft 405 kts 13°
2026-05-08 04:45 41.53236 -111.65153 25686 ft 406 kts 12°
2026-05-08 04:45 41.55957 -111.64089 26184 ft 408 kts 12°
2026-05-08 04:46 41.58684 -111.63019 26683 ft 409 kts 12°
2026-05-08 04:46 41.61418 -111.61944 27153 ft 410 kts 12°
2026-05-08 04:46 41.64163 -111.60865 27573 ft 412 kts 12°
2026-05-08 04:46 41.66880 -111.59796 27983 ft 413 kts 12°
2026-05-08 04:47 41.69682 -111.58691 28360 ft 415 kts 12°
2026-05-08 04:47 41.72416 -111.57607 28738 ft 417 kts 12°
2026-05-08 04:47 41.75204 -111.56504 29120 ft 418 kts 12°
2026-05-08 04:47 41.77992 -111.55408 29648 ft 415 kts 11°
2026-05-08 04:48 41.80776 -111.54536 30265 ft 407 kts
2026-05-08 04:48 41.83553 -111.53866 30730 ft 405 kts
2026-05-08 04:48 41.86337 -111.53232 30942 ft 406 kts
2026-05-08 04:48 41.89120 -111.52606 30939 ft 405 kts
2026-05-08 04:49 41.94676 -111.51356 30944 ft 405 kts
2026-05-08 04:49 42.00233 -111.50106 30943 ft 405 kts
2026-05-08 04:50 42.05786 -111.48850 30945 ft 405 kts
2026-05-08 04:50 42.11343 -111.47588 30948 ft 405 kts
2026-05-08 04:51 42.16898 -111.46325 30946 ft 405 kts
2026-05-08 04:51 42.22449 -111.45060 30946 ft 404 kts
2026-05-08 04:52 42.27995 -111.43784 30949 ft 405 kts
2026-05-08 04:52 42.33443 -111.41623 30950 ft 410 kts 13°
2026-05-08 04:53 42.38836 -111.39017 30959 ft 411 kts 14°
2026-05-08 04:53 42.44204 -111.36325 30956 ft 412 kts 14°
2026-05-08 04:54 42.49538 -111.33645 30953 ft 411 kts 14°
2026-05-08 04:54 42.54945 -111.30941 30981 ft 411 kts 14°
2026-05-08 04:55 42.60229 -111.28298 31016 ft 402 kts 14°
2026-05-08 04:55 42.65460 -111.25680 31021 ft 400 kts 14°
2026-05-08 04:56 42.70682 -111.23064 31032 ft 400 kts 14°
2026-05-08 04:56 42.75900 -111.20445 31035 ft 400 kts 14°
2026-05-08 04:57 42.81119 -111.17822 31041 ft 400 kts 14°
2026-05-08 04:57 42.86345 -111.15190 31030 ft 400 kts 14°
2026-05-08 04:58 42.91527 -111.12378 30976 ft 406 kts 21°
2026-05-08 04:58 42.96208 -111.07860 30974 ft 416 kts 30°
2026-05-08 04:59 43.00751 -111.02960 30496 ft 415 kts 31°
2026-05-08 04:59 43.03016 -111.00497 29660 ft 417 kts 31°
2026-05-08 04:59 43.05302 -110.98010 28680 ft 420 kts 31°
2026-05-08 05:00 43.07561 -110.95540 28188 ft 412 kts 31°
2026-05-08 05:00 43.09778 -110.93110 27709 ft 405 kts 31°
2026-05-08 05:00 43.11960 -110.90721 27222 ft 398 kts 31°
2026-05-08 05:00 43.13385 -110.89162 26903 ft 394 kts 31°
2026-05-08 05:01 43.16191 -110.86094 26289 ft 388 kts 31°
2026-05-08 05:01 43.18319 -110.83765 25776 ft 385 kts 31°
2026-05-08 05:01 43.20380 -110.81507 25304 ft 383 kts 31°
2026-05-08 05:01 43.22454 -110.79232 24819 ft 382 kts 31°
2026-05-08 05:02 43.24529 -110.76956 24335 ft 382 kts 31°
2026-05-08 05:02 43.26601 -110.74679 23844 ft 381 kts 32°
2026-05-08 05:02 43.28656 -110.72415 23323 ft 378 kts 31°
2026-05-08 05:02 43.30041 -110.70889 22955 ft 376 kts 31°
2026-05-08 05:03 43.32716 -110.67939 22298 ft 371 kts 31°
2026-05-08 05:03 43.34072 -110.66442 21966 ft 370 kts 31°
2026-05-08 05:03 43.36080 -110.64225 21535 ft 370 kts 32°
2026-05-08 05:03 43.38081 -110.62017 21029 ft 368 kts 32°
2026-05-08 05:04 43.40071 -110.59814 20528 ft 365 kts 32°
2026-05-08 05:04 43.42034 -110.57642 20050 ft 363 kts 32°
2026-05-08 05:04 43.44000 -110.55465 19544 ft 361 kts 32°
2026-05-08 05:04 43.45949 -110.53301 19099 ft 361 kts 33°
2026-05-08 05:05 43.47897 -110.51139 18598 ft 359 kts 33°
2026-05-08 05:05 43.49838 -110.48981 18074 ft 358 kts 33°
2026-05-08 05:05 43.51773 -110.46829 17490 ft 355 kts 34°
2026-05-08 05:05 43.53692 -110.44694 17014 ft 355 kts 34°
2026-05-08 05:06 43.55609 -110.42565 16529 ft 353 kts 34°
2026-05-08 05:06 43.57504 -110.40448 16069 ft 349 kts 34°
2026-05-08 05:06 43.59390 -110.38342 15591 ft 348 kts 34°
2026-05-08 05:06 43.61268 -110.36247 15108 ft 346 kts 34°
2026-05-08 05:07 43.63139 -110.34159 14631 ft 344 kts 34°
2026-05-08 05:07 43.64999 -110.32080 14182 ft 346 kts 34°
2026-05-08 05:07 43.66990 -110.30261 13846 ft 349 kts 21°
2026-05-08 05:07 43.69297 -110.29339 13633 ft 344 kts
2026-05-08 05:08 43.71636 -110.29536 13484 ft 329 kts 346°
2026-05-08 05:08 43.73811 -110.30227 13310 ft 313 kts 342°
2026-05-08 05:08 43.75863 -110.30974 13125 ft 299 kts 343°
2026-05-08 05:08 43.77831 -110.31701 12948 ft 288 kts 342°
2026-05-08 05:09 43.79702 -110.32624 12779 ft 285 kts 330°
2026-05-08 05:09 43.81259 -110.34288 12517 ft 283 kts 309°
2026-05-08 05:09 43.82216 -110.36649 12289 ft 283 kts 288°
2026-05-08 05:09 43.82453 -110.39351 12063 ft 286 kts 270°
2026-05-08 05:10 43.82305 -110.42103 11840 ft 287 kts 266°
2026-05-08 05:10 43.81869 -110.47596 11390 ft 287 kts 266°
2026-05-08 05:10 43.81657 -110.50336 11162 ft 286 kts 266°
2026-05-08 05:11 43.81333 -110.53050 10933 ft 287 kts 256°
2026-05-08 05:11 43.80616 -110.55641 10571 ft 289 kts 248°
2026-05-08 05:11 43.79763 -110.58153 10201 ft 288 kts 247°
2026-05-08 05:11 43.78877 -110.60605 10001 ft 279 kts 241°
2026-05-08 05:12 43.77713 -110.62672 9892 ft 268 kts 226°
2026-05-08 05:12 43.76327 -110.64316 9716 ft 258 kts 220°
2026-05-08 05:12 43.74946 -110.65812 9552 ft 246 kts 221°
2026-05-08 05:12 43.73601 -110.67138 9402 ft 232 kts 216°
2026-05-08 05:13 43.72181 -110.68146 9094 ft 228 kts 204°
2026-05-08 05:13 43.70689 -110.68876 8616 ft 228 kts 199°
2026-05-08 05:13 43.69195 -110.69620 8154 ft 226 kts 200°
2026-05-08 05:13 43.67752 -110.70338 7839 ft 215 kts 201°
2026-05-08 05:14 43.66382 -110.71013 7562 ft 200 kts 200°
2026-05-08 05:14 43.65145 -110.71620 7311 ft 183 kts 201°
2026-05-08 05:14 43.64009 -110.72178 7041 ft 167 kts 200°
2026-05-08 05:14 43.62963 -110.72686 6795 ft 153 kts 198°
2026-05-08 05:15 43.61982 -110.73165 6563 ft 148 kts 199°
2026-05-08 05:15 43.61027 -110.73630 6428 ft 138 kts 199°
2026-05-08 05:15 43.60319 -110.73977 6416 ft 67 kts 200°
2026-05-08 05:15 43.60052 -110.74107 6421 ft 31 kts 199°
2026-05-08 05:16 43.59926 -110.74119 6423 ft 15 kts 139°
2026-05-08 05:16 43.59911 -110.74023 6422 ft 9 kts 50°
2026-05-08 05:16 43.59969 -110.73988 6423 ft 10 kts 19°
2026-05-08 05:16 43.60039 -110.73954 6421 ft 11 kts 19°
2026-05-08 05:17 43.60113 -110.73918 6422 ft 11 kts 20°
2026-05-08 05:17 43.60182 -110.73884 6421 ft 10 kts 19°
2026-05-08 05:17 43.60250 -110.73851 6419 ft 11 kts 19°
2026-05-08 05:17 43.60320 -110.73816 6421 ft 11 kts 19°
2026-05-08 05:18 43.60388 -110.73783 6421 ft 10 kts 19°
2026-05-08 05:18 43.60422 -110.73766 6423 ft 3 kts 19°
2026-05-08 05:18 43.60438 -110.73759 6423 ft 0 kts 19°
2026-05-08 05:19 43.60441 -110.73753 6420 ft 0 kts 62°
2026-05-08 05:19 43.60441 -110.73749 6421 ft 0 kts 83°
2026-05-08 05:19 43.60441 -110.73747 6421 ft 1 kts 83°
2026-05-08 05:19 43.60446 -110.73743 6423 ft 1 kts 28°
2026-05-08 05:20 43.60475 -110.73727 6425 ft 5 kts 44°
2026-05-08 05:20 43.60477 -110.73698 6425 ft 3 kts 104°
2026-05-08 05:20 43.60471 -110.73674 6423 ft 2 kts 109°
2026-05-08 05:20 43.60468 -110.73662 6424 ft 0 kts 109°